Погода в Дивинополисе

Бразилия     20°08′20″S   44°53′13″W
темп.,
°C
ветер,
м/с
пор.,
м/с
влажн.,
%
обл.,
%
осадки,
мм/ч
давл.,
гПа
погр.,
м
28 сентября, вт
вт2800:00+19юв22770 0.1 101827
03:00+18ююв22840 0.1 101737
06:00+17юв11850 0.0 101811
09:00+26св34480 0.0 1019969
12:00+31ссз332911 0.0 10152862
15:00+31юз542872 0.0 10121750
18:00+26в343918 0.0 101268
21:00+22ссв235743 0.0 101552
29 сентября, ср
ср2900:00+20св310622 0.0 1015312
03:00+18юв22705 0.0 101423
06:00+18ю117417 0.0 101511
09:00+24с354812 0.0 1015600
12:00+32ссз44273 0.0 10122337
15:00+32з342467 0.0 10082196
18:00+28зюз3535100 0.0 1010160
21:00+23юв2247100 0.1 101215
30 сентября, чт
чт3000:00+21ссз115814 0.2 101311
03:00+21вюв236121 0.2 101176
06:00+19юв22685 0.0 101319
09:00+29св23375 0.0 1013943
12:00+35сз232316 0.0 10102923
15:00+31ююз4331100 0.1 10071486
18:00+27вюв454081 0.3 100999
21:00+21св127112 0.4 101259
1 октября, пт
пт100:00+20в11732 0.0 101311
03:00+19в11755 0.0 101212
06:00+18юв11803 0.0 101320
09:00+28с46402 0.0 1013890
12:00+35ссз542415 0.0 10092442
15:00+36зсз441991 0.0 10053933
18:00+30з582897 0.0 1007235
21:00+24ююв51053100 0.3 1011280
2 октября, сб
сб200:00+21ю2377100 0.0 101156
03:00+22ююз227240 0.0 101156
06:00+20юв22750 0.0 101223
09:00+29ссв68372 0.0 10121223
12:00+35с66234 0.0 10092533
15:00+35ссз4521100 0.0 10053194
18:00+30св22285 0.0 100511
21:00+26ю264454 0.1 1009175